AO-07 1 07530U 74089B 24011.63497774 -.00000037 00000-0 60841-4 0 9992 2 07530 101.9684 4.8710 0012329 26.1468 86.0390 12.53671056249298 UO-11 1 14781U 84021B 24011.48634505 .00002308 00000-0 27085-3 0 9997 2 14781 97.6847 345.7913 0006757 230.2490 129.8131 14.85865185125061 AO-16 1 20439U 90005D 24011.58113410 .00000307 00000-0 12848-3 0 9999 2 20439 98.8967 12.3264 0010011 317.8852 169.8413 14.33251922774756 LO-19 1 20442U 90005G 24011.54538845 .00000331 00000-0 13684-3 0 9998 2 20442 98.8686 357.7972 0010710 290.0098 69.9932 14.33408505775196 AO-27 1 22825U 93061C 24011.66598078 .00000210 00000-0 98190-4 0 9999 2 22825 98.8138 62.6213 0008589 172.4499 187.6813 14.30408164580361 IO-26 1 22826U 93061D 24011.68599281 .00000240 00000-0 10915-3 0 9990 2 22826 98.8083 62.5026 0009337 158.8516 201.3054 14.30780351580623 FO-29 1 24278U 96046B 24011.48004798 -.00000035 00000-0 30046-5 0 9993 2 24278 98.5621 326.9482 0349241 236.7340 119.9887 13.53169582353106 NOAA-15 1 25338U 98030A 24011.77221523 .00000272 00000-0 13067-3 0 9999 2 25338 98.5863 42.0615 0011295 67.4560 292.7814 14.26469518334993 GO-32 1 25397U 98043D 24011.49535975 .00000160 00000-0 89614-4 0 9994 2 25397 98.9000 336.0648 0000314 221.8807 138.2347 14.23967614324976 ISS 1 25544U 98067A 24011.91068561 .00014832 00000-0 26478-3 0 9992 2 25544 51.6425 14.6251 0003871 26.1394 51.0637 15.50274735434167 NO-44 1 26931U 01043C 24011.40888183 .00000319 00000-0 15225-3 0 9998 2 26931 67.0514 19.1130 0005350 265.5458 94.5032 14.31089012163371 SO-50 1 27607U 02058C 24011.33704856 .00001791 00000-0 26220-3 0 9994 2 27607 64.5553 346.4096 0043880 175.7110 184.4379 14.78167933132987 CO-55 1 27844U 03031E 24011.53362865 .00000578 00000-0 27588-3 0 9991 2 27844 98.6787 20.7767 0008845 238.8774 121.1537 14.23030643 65361 CO-57 1 27848U 03031J 24011.47809087 .00000459 00000-0 22531-3 0 9991 2 27848 98.6820 21.0491 0008619 256.7326 103.2891 14.22505752 65116 RS-22 1 27939U 03042A 24011.80784333 .00002314 00000-0 40133-3 0 9997 2 27939 98.2668 165.8188 0011993 192.4898 304.1045 14.69188695 85166 NOAA-18 1 28654U 05018A 24011.81346726 .00000325 00000-0 19734-3 0 9991 2 28654 98.8910 90.0102 0014885 146.7713 213.4396 14.13097262961031 CO-58 1 28895U 05043F 24010.81619416 .00002767 00000-0 50510-3 0 9993 2 28895 98.1776 146.7844 0016852 135.0969 225.1601 14.66685145971236 CO-65 1 32785U 08021C 24011.52272365 .00006752 00000-0 62978-3 0 9991 2 32785 97.7351 338.6518 0013079 125.1476 235.0971 14.94474586851912 AAUSAT2 1 32788U 08021F 24011.42889152 .00020067 00000-0 12374-2 0 9990 2 32788 97.5810 352.3034 0007518 18.6179 341.5324 15.09950036854561 CO-66 1 32791U 08021J 24011.50566590 .00009624 00000-0 77467-3 0 9992 2 32791 97.6788 344.1614 0009937 82.8016 277.4336 15.00128258852857 RS-30 1 32953U 08025A 24011.73174967 .00000022 00000-0 87388-4 0 9991 2 32953 82.5023 187.3969 0019929 89.6215 270.7149 12.43134042709569 PRISM 1 33493U 09002B 24011.64761315 .00019417 00000-0 11234-2 0 9999 2 33493 98.2284 46.4891 0015401 66.2584 294.0258 15.12204389815190 NOAA-19 1 33591U 09005A 24011.81403265 .00000279 00000-0 17457-3 0 9997 2 33591 99.0722 65.7884 0014035 19.7191 340.4520 14.12903585769403 SRMSAT 1 37841U 11058D 24011.43893630 .00000517 00000-0 13843-3 0 9997 2 37841 19.9739 30.8037 0012023 160.0197 345.8299 14.11013621632254 HRBE 1 37855U 11061F 24011.20563567 .00063945 00000-0 12749-2 0 9991 2 37855 101.6911 98.2015 0084526 116.3611 244.6330 15.42786516668443 RS-40 1 38735U 12041C 24011.52884718 .00000057 00000-0 34306-3 0 9996 2 38735 82.4752 268.1722 0016701 200.6953 159.3451 12.42599306519592 ZACUBE-1 1 39417U 13066B 24011.44338148 .00006923 00000-0 75850-3 0 9991 2 39417 97.7149 331.4185 0051821 323.3870 36.3808 14.87084340548128 Delfi-N3xt 1 39428U 13066N 24011.39079088 .00007893 00000-0 10703-2 0 9994 2 39428 97.8400 294.2409 0104066 238.8423 120.2549 14.75432567542809 GOMX-1 1 39430U 13066Q 24011.73969392 .00003493 00000-0 59512-3 0 9995 2 39430 97.7547 255.5615 0143677 33.2638 327.7494 14.63009678540012 LO-74 1 39440U 13066AA 24011.42617011 .00005160 00000-0 63642-3 0 9992 2 39440 97.7982 318.9058 0074278 69.5012 291.4154 14.81343794544967 AO-73 1 39444U 13066AE 24011.80631081 .00008603 00000-0 89153-3 0 9991 2 39444 97.7005 334.5697 0049301 304.8468 54.8118 14.89347345547259 SPROUT 1 39770U 14029E 24011.33926511 .00054155 00000-0 27667-2 0 9990 2 39770 98.0018 152.0207 0005758 329.6545 30.4352 15.16466571523537 DTUSAT-2 1 40030U 14033W 24011.80613770 .00008766 00000-0 79217-3 0 9994 2 40030 97.9919 320.6212 0009280 329.8059 30.2625 14.95682628519660 EO-80 1 40032U 14033Y 24011.84643668 .00008279 00000-0 74790-3 0 9999 2 40032 97.9903 320.6771 0009485 328.0459 32.0185 14.95712959519658 HODOYOSHI-1 1 40299U 14070B 24011.81440365 .00020260 00000-0 50519-3 0 9998 2 40299 97.1661 74.5799 0007546 243.3180 116.7294 15.40208450510847 GRIFEX 1 40379U 15003D 24010.92900228 .00213424 00000-0 12858-2 0 9993 2 40379 99.0818 7.8532 0032949 257.8256 101.9312 15.76302515495636 XW-2C 1 40906U 15049H 24011.76967219 .00022741 00000-0 70207-3 0 9998 2 40906 97.4885 25.5537 0011332 135.4236 224.7920 15.33501296460284 XW-2D 1 40907U 15049J 24011.81085855 .00029132 00000-0 79689-3 0 9996 2 40907 97.4849 26.9232 0010368 125.3638 234.8576 15.37265116460432 LILACSAT-2 1 40908U 15049K 24011.80545861 .00009188 00000-0 39320-3 0 9991 2 40908 97.5266 19.7708 0013101 173.7862 186.3539 15.22961412459512 XW-2E 1 40909U 15049L 24011.77964129 .00127505 00000-0 13860-2 0 9994 2 40909 97.4312 36.9084 0007502 83.9095 276.3018 15.63017974461414 XW-2F 1 40910U 15049M 24011.76214238 .00119791 00000-0 13711-2 0 9997 2 40910 97.4418 36.1346 0008125 86.2063 274.0124 15.61702887461133 XW-2B 1 40911U 15049N 24011.78142178 .00029665 00000-0 82172-3 0 9991 2 40911 97.4826 27.1742 0010389 127.0588 233.1607 15.36871650460305 DCBB 1 40912U 15049P 24011.81797770 .00766320 26246-3 17797-2 0 9999 2 40912 97.3814 43.3342 0002820 73.1804 286.9782 15.97143167462125 IO-86 1 40931U 15052B 24006.28856983 .00001263 00000-0 84248-4 0 9993 2 40931 6.0004 76.3799 0013541 291.8204 68.0484 14.77555377447321 ChubuSat-2 1 41338U 16012B 24011.26583991 .00006119 00000-0 40178-3 0 9990 2 41338 31.0035 325.4764 0011393 95.0482 265.1456 15.06137164433754 ChubuSat-3 1 41339U 16012C 24011.29325652 .00005703 00000-0 37761-3 0 9994 2 41339 31.0100 322.9915 0011394 101.8451 258.3464 15.05789136433654 Horyu-4 1 41340U 16012D 24011.84529507 .00012614 00000-0 71037-3 0 9995 2 41340 31.0033 277.3892 0010335 181.8776 178.1825 15.11965272434284 e-st@r-II 1 41459U 16025D 24011.71512893 .00086698 00000-0 13387-2 0 9992 2 41459 98.1536 241.7752 0070603 82.6344 278.2922 15.50937709424961 Lapan A3 1 41603U 16040E 24011.77972450 .00003774 00000-0 15911-3 0 9995 2 41603 97.1515 32.7031 0010764 304.5828 55.4393 15.23844903419246 Pratham 1 41783U 16059A 24011.59250658 .00001083 00000-0 21170-3 0 9998 2 41783 97.8502 38.2714 0033233 158.2349 202.0275 14.64425940389475 CAS-2T 1 41847U 16066G 24011.81599608 .00001696 00000-0 26013-3 0 9994 2 41847 98.4812 84.2294 0355638 290.9959 65.3529 14.40525324376837 CAS-4B 1 42759U 17034B 24011.54244306 .00016092 00000-0 69109-3 0 9994 2 42759 43.0157 33.3920 0010390 14.6850 345.4300 15.22415841363336 CAS-4A 1 42761U 17034D 24011.48930678 .00014330 00000-0 61568-3 0 9998 2 42761 43.0141 32.1588 0011267 15.8986 344.2216 15.22467212363327 NIUSat 1 42766U 17036B 24011.61469524 .00092742 00000-0 11701-2 0 9993 2 42766 97.1271 45.3200 0007761 64.0021 296.2034 15.59242729364849 Aalto 1 1 42775U 17036L 24011.63516370 .00040986 00000-0 80774-3 0 9997 2 42775 97.1284 41.8870 0009486 72.5755 287.6532 15.47053406364612 URSA MAIOR 1 42776U 17036M 24011.61599993 .00057570 00000-0 95569-3 0 9993 2 42776 97.1278 44.1457 0008210 64.7599 295.4504 15.51887356364740 Max Valier Sat 1 42778U 17036P 24011.61862491 .00052500 00000-0 82402-3 0 9991 2 42778 97.1290 48.1041 0007334 68.5982 291.6053 15.53480634364919 D-SAT 1 42794U 17036AF 24011.50954441 .00010289 00000-0 76998-3 0 9995 2 42794 97.4822 359.4000 0110053 320.9806 38.3513 14.98144610357094 TechnoSat 1 42829U 17042E 24011.51188015 .00004015 00000-0 37095-3 0 9993 2 42829 97.3777 201.6099 0011811 243.3545 116.6467 14.95069714353606 AO-91 1 43017U 17073E 24011.60232522 .00008399 00000-0 54886-3 0 9996 2 43017 97.6016 252.8491 0223098 98.9065 263.7480 14.89795151332174 AO-92 1 43137U 18004AC 24011.21793098 .00390710 00000-0 14204-2 0 9991 2 43137 97.2993 101.5926 0001838 336.0475 24.0711 15.87549949334737 TianYi 2 1 43155U 18008A 24011.83478867 .00044905 00000-0 12083-2 0 9992 2 43155 97.2674 65.5542 0008514 289.2131 70.8193 15.37699283330575 Zhou Enlai 1 43156U 18008B 24011.80384720 .00054593 00000-0 13562-2 0 9991 2 43156 97.2717 66.1637 0006486 291.1724 68.8829 15.40121113330526 TianYi 6 1 43158U 18008D 24011.67671951 .00034936 00000-0 11033-2 0 9993 2 43158 97.2780 61.5639 0007336 300.6848 59.3671 15.32723915330245 S-Net D 1 43186U 18014G 24011.72084799 .00005898 00000-0 44798-3 0 9995 2 43186 97.6071 276.4558 0011375 165.8483 194.3063 15.02500155324844 S-Net B 1 43187U 18014H 24011.72251188 .00005931 00000-0 45040-3 0 9993 2 43187 97.6078 276.3941 0012391 163.0264 197.1377 15.02495986324847 S-Net A 1 43188U 18014J 24011.25594146 .00005409 00000-0 41119-3 0 9999 2 43188 97.6083 276.0374 0012155 164.8785 195.2806 15.02495653324775 S-Net C 1 43189U 18014K 24011.72491852 .00005932 00000-0 45017-3 0 9994 2 43189 97.6101 276.4115 0014312 159.1004 201.0809 15.02499708323393 CubeBel-1 1 43666U 18083E 24011.82427139 .00177058 00000-0 16327-2 0 9998 2 43666 97.3481 52.6592 0006293 76.2706 283.9255 15.67034293289492 Changshagaoxin 1 43669U 18083H 24011.83738885 .00079859 00000-0 12617-2 0 9993 2 43669 97.3548 45.2528 0006175 89.2665 270.9295 15.53195437289104 Ten-Koh 1 43677U 18084G 24011.41349603 .00004373 00000-0 40958-3 0 9992 2 43677 98.0376 160.7287 0014694 175.7484 184.3863 14.94526274283148 PO-101 1 43678U 18084H 24011.83567699 .00003210 00000-0 30366-3 0 9997 2 43678 98.0476 165.5415 0009172 183.2426 176.8736 14.94375828283413 QO-100 1 43700U 18090A 24011.51357318 .00000159 00000-0 00000-0 0 9998 2 43700 0.0162 356.9789 0002377 345.4772 338.7552 1.00272426 18773 MinXSS-2 1 43758U 18099A 24011.13790471 .00010505 00000-0 73779-3 0 9991 2 43758 97.5778 76.2191 0018840 135.6880 224.5858 15.05168883278983 AO-95 1 43770U 18099N 24011.71786030 .00009554 00000-0 71579-3 0 9993 2 43770 97.5696 73.0930 0014675 176.2251 183.9088 15.02819670278894 RANGE-B 1 43772U 18099Q 24011.16019765 .00011532 00000-0 80406-3 0 9996 2 43772 97.5494 75.6690 0007311 92.7455 267.4609 15.05539174278911 RANGE-A 1 43773U 18099R 24011.61517000 .00005529 00000-0 44278-3 0 9998 2 43773 97.5309 69.8969 0017506 140.8177 219.4318 15.00426732278794 MOVE-II 1 43780U 18099Y 24011.62272506 .00016813 00000-0 10529-2 0 9995 2 43780 97.5460 76.7097 0008361 152.2692 207.8984 15.09416167279114 SNUSat 2 1 43782U 18099AA 24011.12687647 .00007300 00000-0 55615-3 0 9995 2 43782 97.5352 72.4861 0015886 117.1284 243.1563 15.02251031278828 SnugLite 1 43784U 18099AC 24011.11741194 .00009121 00000-0 67975-3 0 9999 2 43784 97.5197 71.9480 0005395 125.2450 234.9281 15.03104976278873 ITASat 1 1 43786U 18099AE 24011.60761776 .00006268 00000-0 48298-3 0 9999 2 43786 97.5343 73.4304 0019189 157.8101 202.3959 15.01829004278909 EAGLET 1 1 43790U 18099AJ 24011.66935207 .00004836 00000-0 38224-3 0 9999 2 43790 97.5510 73.9167 0018609 151.0890 209.1370 15.00977463278633 ESEO 1 43792U 18099AL 24011.61692774 .00002503 00000-0 21281-3 0 9999 2 43792 97.5414 71.5471 0012825 140.8415 219.3739 14.98661854278590 CSIM 1 43793U 18099AM 24011.14452856 .00015401 00000-0 96063-3 0 9994 2 43793 97.5527 77.8190 0015213 134.0503 226.1982 15.09514662278896 JO-97 1 43803U 18099AX 24011.39065151 .00009683 00000-0 70341-3 0 9997 2 43803 97.5446 73.7907 0011454 119.3112 240.9260 15.04015132278957 Suomi 100 1 43804U 18099AY 24011.11048954 .00009183 00000-0 67490-3 0 9996 2 43804 97.5533 73.3188 0017896 118.9759 241.3264 15.03515437278906 CHOMPTT 1 43855U 18104G 24011.47551133 .00069388 00000-0 90057-3 0 9994 2 43855 85.0201 22.7094 0004267 214.5500 145.5485 15.58573126282796 ISAT 1 43879U 18111D 24011.24897806 .00010544 00000-0 72040-3 0 9995 2 43879 97.6329 278.1273 0013970 169.3447 190.8079 15.06264041275617 UWE-4 1 43880U 18111E 24011.29237351 .00010984 00000-0 76014-3 0 9998 2 43880 97.6233 278.5358 0017216 182.0069 178.1092 15.05733946275641 Sparrow 1 43881U 18111F 24011.26885939 .00011404 00000-0 77071-3 0 9999 2 43881 97.6404 279.7769 0009240 211.3920 148.6757 15.06694491275676 Lume 1 1 43908U 18111AJ 24011.21346913 .00280575 00000-0 13421-2 0 9993 2 43908 97.0982 259.6293 0008489 120.7661 239.4445 15.81991955281790 AISTechSat 3 1 44103U 19018AB 24011.81280511 .00095956 00000-0 10875-2 0 9992 2 44103 97.2177 75.9725 0004345 221.9127 138.1800 15.62068596266814 AISat 1 1 44104U 19018AC 24011.84015945 .00055466 00000-0 63761-3 0 9998 2 44104 97.3689 113.8821 0028004 209.5562 150.4114 15.61363625268105 Prox-1 1 44339U 19036A 24011.61395195 .00012577 00000-0 23582-2 0 9993 2 44339 23.9986 155.9824 0010000 49.4326 310.7036 14.63003614242113 SONATE 1 44400U 19038Q 24011.50503555 .00018861 00000-0 70674-3 0 9990 2 44400 97.7037 359.5524 0016669 308.4979 51.4764 15.27189183249960 BeeSat 9 1 44412U 19038AC 24011.53483358 .00070170 00000-0 13800-2 0 9992 2 44412 97.6847 6.5038 0007439 283.8387 76.2034 15.47000149250169 JAISAT-1 1 44419U 19038F 24011.52665786 .00069085 00000-0 13641-2 0 9991 2 44419 97.6836 7.6055 0007163 279.9496 80.0944 15.46890857250543 Taurus 1 1 44530U 19059C 24011.84669521 .00008082 00000-0 19823-2 0 9992 2 44530 98.5643 128.3689 0013143 173.7190 186.4172 14.52607392228909 Duchifat 3 1 44854U 19089C 24011.85296075 .00014690 00000-0 86457-3 0 9995 2 44854 36.9601 280.0262 0009656 250.0747 109.8958 15.10978736224356 OPS-SAT 1 44878U 19092F 24011.04443457 .00065816 00000-0 11746-2 0 9998 2 44878 97.4575 209.4094 0006813 104.4274 255.7733 15.49817946225801 TO-108 1 44881U 19093C 24011.81010296 .00001569 00000-0 19841-3 0 9999 2 44881 97.8447 91.5974 0015794 115.1440 245.1414 14.83155816219716 FloripaSat 1 1 44885U 19093G 24011.77328020 .00007031 00000-0 77026-3 0 9994 2 44885 97.8543 95.7671 0014327 113.3255 246.9470 14.88001302219943 RS-44 1 44909U 19096E 24011.57701231 .00000045 00000-0 12993-3 0 9991 2 44909 82.5197 209.4742 0218268 59.8722 302.3816 12.79725712188810 BY70-2 1 45857U 20042B 24011.82685580 .00049198 00000-0 35825-2 0 9993 2 45857 97.9236 99.1108 0007191 28.2876 331.8738 15.03562532190731 UPMSat 2 1 46276U 20061E 24011.12592861 .00015225 00000-0 55328-3 0 9997 2 46276 97.3219 79.7241 0001280 35.4475 324.6850 15.28366503185996 AmicalSat 1 46287U 20061R 24011.16927802 .00024200 00000-0 90086-3 0 9993 2 46287 97.3744 79.4460 0003193 81.1410 279.0191 15.27473352185376 SALSAT 1 46495U 20068K 24011.40851706 .00007269 00000-0 44539-3 0 9995 2 46495 97.7977 327.2907 0016013 127.2490 233.0202 15.10381035180471 CAPE 3 1 47309U 21002A 24011.17879337 .00258986 00000-0 16242-2 0 9996 2 47309 60.6654 322.9010 0025521 62.1060 298.2631 15.75243646166590 AO-109 1 47311U 21002C 24011.15326626 .00102508 00000-0 12528-2 0 9996 2 47311 60.6752 329.1030 0028694 59.6023 300.7911 15.59304252166466 ExoCube 2 1 47319U 21002L 24011.37373038 .00084329 00000-0 11106-2 0 9998 2 47319 60.6726 331.7680 0029523 59.5300 300.8713 15.57381780166408 UVSQ-SAT 1 47438U 21006AB 24011.14364894 .00031856 00000-0 97396-3 0 9992 2 47438 97.3551 71.1535 0009232 67.0924 293.1293 15.33761749164415 YUSAT 1 1 47439U 21006AC 24011.60027006 .00050690 00000-0 12560-2 0 9991 2 47439 97.3547 73.6465 0007885 58.9285 301.2734 15.40208028164618 SOMP 2b 1 47445U 21006AJ 24011.58934668 .00029744 00000-0 94836-3 0 9999 2 47445 97.3514 70.4497 0009336 71.5158 288.7098 15.32435926164434 IDEASSat 1 47458U 21006AX 24011.69485198 .00026941 00000-0 89510-3 0 9993 2 47458 97.3615 71.3204 0008857 72.3622 287.8586 15.31135279164415 CubeSX-Sirius-HSE 1 47951U 21022V 24011.79427453 .00019646 00000-0 93670-3 0 9996 2 47951 97.4786 271.2269 0016008 337.9225 22.1318 15.19023323154639 CubeSX-HSE 1 47952U 21022W 24011.75754745 .00019400 00000-0 92290-3 0 9995 2 47952 97.4784 271.2592 0015878 337.6596 22.3945 15.19104545154633 KSU-Cubesat 1 47954U 21022Y 24011.71194766 .00022327 00000-0 10123-2 0 9990 2 47954 97.4791 271.9841 0014971 335.6300 24.4225 15.20746852154393 GRBAlpha 1 47959U 21022AD 24011.79805149 .00019890 00000-0 94353-3 0 9996 2 47959 97.4787 271.4191 0015781 337.5858 22.4685 15.19199436153468 Orbicraft-Zorkiy 1 47960U 21022AE 24011.82491339 .00020659 00000-0 94473-3 0 9992 2 47960 97.4823 272.2606 0015065 335.6631 24.3891 15.20467596154192 STECCO 1 47962U 21022AG 24011.77347484 .00049685 00000-0 15514-2 0 9997 2 47962 97.4797 277.2240 0007896 320.7691 39.2978 15.33000365153840 MO-110 1 47964U 21022AJ 24011.27464157 .00055444 00000-0 16408-2 0 9994 2 47964 97.4815 277.7272 0009078 315.0930 44.9578 15.34664854153827 FEES 1 48082U 21022AL 24011.69541275 .00333947 00000-0 30351-2 0 9999 2 48082 97.4724 283.7605 0002529 91.3894 268.7656 15.66929655153968 TUBIN 1 48900U 21059X 24011.80396425 .00015500 00000-0 63370-3 0 9996 2 48900 97.6231 152.8238 0006986 278.0940 81.9504 15.24429607140900 IT-SPINS 1 49017U 21013G 24011.66474616 .00219153 00000-0 14694-2 0 9993 2 49017 51.5801 118.7045 0006051 341.0873 18.9900 15.74015656142124 LEDSAT 1 49069U 21073D 24011.77090131 .00015362 00000-0 72860-3 0 9990 2 49069 97.4598 84.5148 0022798 114.4915 245.8700 15.19138549132519 CUTE 1 49263U 21088D 24011.69343957 .00014980 00000-0 83095-3 0 9997 2 49263 97.5204 79.3086 0014544 265.2504 94.7066 15.13772423125777 TeikyoSat 4 1 49396U 21102B 24011.61418874 .00003527 00000-0 26365-3 0 9996 2 49396 97.4855 61.9486 0014753 92.6554 267.6361 15.03322388119070 Z-Sat 1 49399U 21102E 24011.75990268 .00005628 00000-0 38145-3 0 9999 2 49399 97.4562 63.3539 0022483 78.2609 282.1140 15.06639415119277 KOSEN 1 1 49402U 21102H 24011.68436308 .00007222 00000-0 45798-3 0 9990 2 49402 97.4495 64.2355 0021186 65.5389 294.8047 15.09022890119379 HO-113 1 50466U 21131B 24011.82404161 .00000891 00000-0 30134-3 0 9995 2 50466 98.5391 97.6323 0003476 225.4837 134.6067 14.39290232107368 Tevel-3 1 50988U 22002E 24011.77501767 .00050779 00000-0 13386-2 0 9995 2 50988 97.4067 83.7350 0004985 207.4564 152.6418 15.38327675110674 Tevel-8 1 50989U 22002F 24011.80424644 .00050072 00000-0 13240-2 0 9993 2 50989 97.4084 83.8455 0004951 205.5628 154.5373 15.38237120110670 Tevel-5 1 50998U 22002Q 24011.76309877 .00053450 00000-0 13359-2 0 9992 2 50998 97.4058 84.4474 0005827 200.7555 159.3455 15.39945336110724 Tevel-6 1 50999U 22002R 24011.76276204 .00052911 00000-0 13236-2 0 9995 2 50999 97.4057 84.4345 0005856 200.4647 159.6365 15.39920776110726 Tevel-1 1 51013U 22002AF 24011.79304445 .00051104 00000-0 13505-2 0 9997 2 51013 97.4057 83.6544 0004844 205.6662 154.4343 15.38250459110672 NO-116 1 51031U 22002AZ 24011.65694424 .00418250 00000-0 26293-2 0 9998 2 51031 97.4108 91.8950 0003821 246.9914 113.0948 15.75542583111129 IRIS-A 1 51044U 22002BN 24011.75979752 .00017157 00000-0 68999-3 0 9994 2 51044 97.4091 79.4689 0006101 220.9855 139.0924 15.24960174110388 Tevel-7 1 51062U 22002CG 24011.80078166 .00050543 00000-0 13339-2 0 9992 2 51062 97.4078 83.8123 0004969 205.7926 154.3071 15.38293763110678 Tevel-4 1 51063U 22002CH 24011.75333178 .00051187 00000-0 13571-2 0 9997 2 51063 97.4076 83.7154 0004965 205.3224 154.7778 15.38148859110665 Tevel-2 1 51069U 22002CP 24011.77542859 .00050011 00000-0 13178-2 0 9991 2 51069 97.4064 83.7024 0004965 207.0083 153.0904 15.38344557110673 SO-115 1 51080U 22002DA 24011.16633603 .00070221 00000-0 14422-2 0 9993 2 51080 97.4358 89.2784 0006517 235.5835 124.4798 15.45740867110813 SO-114 1 51081U 22002DB 24011.17384314 .00073196 00000-0 14700-2 0 9990 2 51081 97.4350 89.3418 0006635 235.2692 124.7933 15.46383226110828 OreSat0 1 52017U 22026K 24011.52806359 .00038570 00000-0 11047-2 0 9991 2 52017 97.5057 21.0194 0019772 68.5807 291.7543 15.35627007101398 Planetum 1 1 52738U 22057G 24011.33674180 .00028406 00000-0 10095-2 0 9998 2 52738 97.5528 133.6511 0005923 350.4557 9.6569 15.28956880 90366 Foresail-1 1 52766U 22057AL 24011.27436152 .00017711 00000-0 70788-3 0 9990 2 52766 97.5666 134.1602 0010272 330.1780 29.8871 15.25132022 90331 SNUGLITE 2 1 52899U 22065F 24011.54296586 .00001966 00000-0 41859-3 0 9993 2 52899 98.0944 156.0679 0006694 288.1490 71.8981 14.60059485 81252 IO-117 1 53106U 22080B 24008.96757248 -.00000003 00000-0 00000-0 0 9993 2 53106 70.1365 248.1941 0008281 140.2235 219.9032 6.42557590 34976 SelfieSat 1 53951U 22057BC 24011.29708405 .00042895 00000-0 13091-2 0 9996 2 53951 97.5563 135.3099 0007095 335.5351 24.5553 15.33771546 90449 FO-118 1 54684U 22167C 24011.82004779 .00021691 00000-0 97564-3 0 9993 2 54684 97.5842 154.3179 0011605 337.6449 22.4279 15.21069406 60313 SSS-2B 1 56184U 23054G 24011.81000512 .00026243 00000-0 89066-3 0 9992 2 56184 97.3891 269.6392 0010223 29.8353 330.3469 15.30439980 41991 CIRBE 1 56188U 23054L 24011.24840795 .00044870 00000-0 13487-2 0 9997 2 56188 97.3837 269.4493 0009088 26.4898 333.6807 15.34226613 41947 INSPIRE-Sat 7 1 56211U 23054AK 24011.65319096 .00041665 00000-0 11891-2 0 9990 2 56211 97.3865 270.6686 0011722 4.2298 355.9043 15.35849540 42052 RoseyCubesat 1 1 56212U 23054AL 24011.76194308 .00047176 00000-0 12967-2 0 9998 2 56212 97.3869 271.0013 0011641 3.0254 357.1059 15.36995583 42089 SO-120 1 56992U 23084BU 24011.77644414 .00024492 00000-0 11753-2 0 9993 2 56992 97.5200 130.8221 0015038 214.1011 145.9259 15.18766943 32224 MRC-100 1 56993U 23084BV 24011.28554804 .00027163 00000-0 12802-2 0 9997 2 56993 97.5201 130.4189 0015038 216.5912 143.4296 15.19369831 32164 UmKA 1 (RS40S) 1 57172U 23091G 24011.83885750 .00006426 00000-0 45149-3 0 9993 2 57172 97.6362 65.5403 0016453 299.7158 60.2430 15.05353910 29806 CubeBel-2 (EU11S) 1 57175U 23091K 24011.82000036 .00008748 00000-0 61351-3 0 9993 2 57175 97.6374 65.4012 0015048 313.0921 46.9046 15.05332025 29790 VERONIKA 1 58261U 23174F 24011.76087156 .00017606 00000-0 94545-3 0 9997 2 58261 97.4805 88.6590 0014630 73.5192 286.7646 15.14889263 9830 KAFASAT 1 58317U 23174BP 24011.76293058 .00021290 00000-0 10872-2 0 9993 2 58317 97.4753 88.7647 0013273 53.8418 306.4041 15.16643618 9846 ENSO 1 58470U 23185J 24011.82969353 .00014932 00000-0 74007-3 0 9996 2 58470 97.4504 80.7204 0015389 108.3919 251.8989 15.17740428 6235 EIRSAT-1 1 58472U 23185L 24011.83029855 .00015692 00000-0 77704-3 0 9994 2 58472 97.4498 80.7144 0015136 109.2990 250.9882 15.17763851 6238 SO-121 1 58567U 23174CY 24011.53495662 .00030358 00000-0 15751-2 0 9996 2 58567 97.4765 88.4704 0015961 63.1363 297.1500 15.15972461 9808 Clark sat-1 (AMBITIOUS) 1 58613U 98067WE 24011.46350180 .00098629 00000-0 14302-2 0 9994 2 58613 51.6402 16.3097 0007364 85.3277 274.8554 15.55015414 3796 BeliefSat-0 1 58695U 24001B 24004.74596408 .00097489 00000-0 61795-3 0 9991 2 58695 9.6657 72.7054 0007217 17.8593 342.1874 15.74486494 565 /EX
